Weather History for Lafayette, LA

Change the Weather History Date:

Monday, July 29, 2013

  Actual Average Record
Temperature  
Mean Temperature 86 °F 84 °F  
Max Temperature 94 °F 93 °F 98 °F (1986)
Min Temperature 77 °F 75 °F 64 °F (1897)
Cooling Degree Days 21 19  
Month to date cooling degree days 495 535  
Year to date cooling degree days 1500 1647  
Since 1 June cooling degree days 1036 1033  
Growing Degree Days 35 (Base 50)    
Moisture  
Dew Point 74 °F    
Average Humidity 72    
Maximum Humidity 94    
Minimum Humidity 49    
Precipitation  
Precipitation 0.00 in 0.17 in 5.66 in (1954)
Month to date precipitation 3.84 5.96  
Year to date precipitation 39.12 35.66  
Sea Level Pressure  
Sea Level Pressure 30.06 in    
Wind  
Wind Speed 2 mph (SSW)    
Max Wind Speed 12 mph    
Max Gust Speed 15 mph    
Visibility 10 miles    
Events      
T = Trace of Precipitation, MM = Missing Value Source: NWS Daily Summary

Daily Weather History Graph

Daily Weather History Graph

Search for Another Location

Airport:

Trip Planner

Search our weather history database for the weather conditions in past years. The results will help you decide how hot, cold, wet, or windy it might be!

Date:

Astronomy

Jul. 29, 2013 Rise Set
Actual Time 6:24 AM CDT 8:03 PM CDT
Civil Twilight 5:58 AM CDT 8:29 PM CDT
Nautical Twilight 5:27 AM CDT 9:00 PM CDT
Astronomical Twilight 4:54 AM CDT 9:33 PM CDT
Moon 12:00 AM CDT 1:30 PM CDT
Length of Visible Light 14h 30m
Length of Day
13h 38m
Waning Gibbous, 50% of the Moon is Illuminated
Jul 29
Waning Gibbous
Jul 29
Last Quarter
Aug 6
New
Aug 14
First Quarter
Aug 20
Full

Hourly Weather History & Observations

Time (CDT) Temp. Heat Index Dew Point Humidity Pressure Visibility Wind Dir Wind Speed Gust Speed Precip Events Conditions
12:53 AM 79.0 °F - 75.0 °F 88% 30.01 in 10.0 mi SW 3.5 mph - N/A   Clear
1:53 AM 78.1 °F - 75.0 °F 90% 30.01 in 10.0 mi Calm Calm - N/A   Clear
2:53 AM 78.1 °F - 75.0 °F 90% 30.01 in 10.0 mi Calm Calm - N/A   Clear
3:53 AM 78.1 °F - 75.9 °F 93% 30.01 in 8.0 mi Calm Calm - N/A   Clear
4:53 AM 78.1 °F - 75.9 °F 93% 30.02 in 7.0 mi Calm Calm - N/A   Clear
5:53 AM 78.1 °F - 75.0 °F 90% 30.04 in 7.0 mi Calm Calm - N/A   Clear
6:53 AM 77.0 °F - 75.9 °F 96% 30.06 in 6.0 mi Calm Calm - N/A   Partly Cloudy
7:53 AM 81.0 °F 87.9 °F 77.0 °F 88% 30.07 in 9.0 mi Calm Calm - N/A   Clear
8:53 AM 82.9 °F 91.8 °F 77.0 °F 82% 30.09 in 10.0 mi Calm Calm - N/A   Partly Cloudy
9:53 AM 84.0 °F 91.2 °F 73.9 °F 72% 30.10 in 10.0 mi WNW 5.8 mph - N/A   Mostly Cloudy
10:53 AM 87.1 °F 94.5 °F 73.0 °F 63% 30.10 in 10.0 mi Variable 3.5 mph - N/A   Scattered Clouds
11:53 AM 90.0 °F 96.9 °F 72.0 °F 55% 30.09 in 10.0 mi Calm Calm - N/A   Partly Cloudy
12:53 PM 90.0 °F 96.9 °F 72.0 °F 55% 30.09 in 10.0 mi Calm Calm - N/A   Scattered Clouds
1:53 PM 91.0 °F 98.2 °F 72.0 °F 53% 30.08 in 10.0 mi SSE 4.6 mph - N/A   Mostly Cloudy
2:53 PM 91.0 °F 98.2 °F 72.0 °F 53% 30.07 in 10.0 mi Calm Calm - N/A   Scattered Clouds
3:53 PM 93.0 °F 100.1 °F 71.1 °F 49% 30.06 in 10.0 mi East 3.5 mph - N/A   Mostly Cloudy
4:53 PM 91.9 °F 100.7 °F 73.0 °F 54% 30.06 in 10.0 mi ENE 5.8 mph - N/A   Mostly Cloudy
5:53 PM 90.0 °F 96.9 °F 72.0 °F 55% 30.06 in 10.0 mi Calm Calm - N/A   Clear
6:53 PM 89.1 °F 97.0 °F 73.0 °F 59% 30.06 in 10.0 mi Calm Calm - N/A   Overcast
7:41 PM 87.8 °F 97.6 °F 75.2 °F 66% 30.06 in 10.0 mi SSW 9.2 mph - N/A   Partly Cloudy
7:53 PM 87.1 °F 96.3 °F 75.0 °F 67% 30.06 in 10.0 mi SSW 8.1 mph - N/A   Partly Cloudy
8:53 PM 84.0 °F 91.2 °F 73.9 °F 72% 30.07 in 10.0 mi SW 9.2 mph - N/A   Clear
9:53 PM 82.9 °F 88.0 °F 72.0 °F 69% 30.08 in 10.0 mi WSW 8.1 mph - N/A   Clear
10:53 PM 81.0 °F 85.8 °F 73.0 °F 77% 30.09 in 10.0 mi WSW 3.5 mph - N/A   Clear
11:53 PM 80.1 °F 84.5 °F 73.9 °F 81% 30.11 in 10.0 mi SW 3.5 mph - N/A   Clear